Flag for U.S.A. Weather past 2 weeks in Sacramento, California, U.S.A.

Now
66 °F

Sunny.


Feels Like: 66 °F
Forecast: 41 / 61 °F
Wind: 8 mph from North

Location: Sacramento Executive Airport

Current Time: Mar 1, 2015 at 4:38:35 PM

Latest Report: Mar 1, 2015 at 3:53 PM


Visibility: 10 mi

Pressure: 29.89 "Hg

Humidity: 34%

Dew point: 37 °F

Location of SacramentoLocation

Historic Weather in Sacramento — Graph

°F

Sacramento temperature yesterday

Maximum temperature yesterday: 58 °F (at 2:53 PM)
Minimum temperature yesterday: 45 °F (at 11:53 PM)
Average temperature yesterday: 51 °F

Past Weeks' High & Low Weather Summary

 TemperatureHumidityPressure
High73 °F (Feb 14, 2:53 PM)100% (Feb 19, 11:02 PM)30.36 "Hg (Feb 19, 11:02 PM)
Low33 °F (Feb 24, 4:53 AM)17% (Feb 24, 2:53 PM)29.66 "Hg (Feb 27, 4:53 PM)
Average54 °F71%30.02 "Hg
* Reported Feb 14 2:53 PM — Mar 1 2:53 PM, Sacramento, Weather by CustomWeather, © 2015

Note: Actual official high and low records may vary slightly from our data, if they occured in-between our weather recording intervals... More about our weather records

Advertising

Sacramento weather history for previous 24 hours

 ConditionsComfort  
Time TempWeatherWind HumidityBarometerVisibility
2:53 PM
Sun, Mar 1
66 °FSunny.8 mph37%29.90 "Hg10 mi
1:53 PM65 °FSunny.6 mph44%29.92 "Hg10 mi
12:53 PM62 °FSunny.8 mph44%29.95 "Hg10 mi
11:53 AM59 °FSunny.7 mph49%29.98 "Hg10 mi
10:53 AM56 °FSunny.6 mph55%29.99 "Hg10 mi
9:53 AM55 °FSunny.3 mph67%30.00 "Hg10 mi
8:53 AM51 °FSunny.5 mph74%30.00 "Hg10 mi
7:53 AM47 °FSunny.3 mph83%29.99 "Hg10 mi
6:53 AM43 °FSunny.6 mph86%29.97 "Hg10 mi
5:53 AM44 °FClear.6 mph73%29.96 "Hg10 mi
4:53 AM41 °FClear.No wind86%29.95 "Hg10 mi
3:53 AM43 °FClear.No wind93%29.94 "Hg10 mi
2:53 AM43 °FClear.No wind93%29.94 "Hg10 mi
1:53 AM42 °FClear.5 mph89%29.94 "Hg9 mi
12:53 AM44 °FFog.No wind93%29.94 "Hg6 mi
11:53 PM
Sat, Feb 28
45 °FClear.No wind90%29.93 "Hg7 mi
10:53 PM46 °FClear.No wind89%29.91 "Hg10 mi
9:53 PM47 °FClear.No wind86%29.90 "Hg10 mi
8:53 PM47 °FClear.No wind90%29.88 "Hg10 mi
7:53 PM52 °FClear.5 mph77%29.87 "Hg10 mi
6:53 PM53 °FClear.5 mph74%29.85 "Hg10 mi
5:53 PM56 °FPassing clouds.3 mph60%29.83 "Hg10 mi
4:53 PM57 °FPassing clouds.5 mph62%29.82 "Hg10 mi
Weather by CustomWeather, © 2015

See weather overviewHow to use our weather pages